Date String (YYYY-MM-DD hh:mm:ss) UTC,Instrument flags,absolute air pressure of the measurement (hPa),sample flow rate (lpm),inlet stack bypass flow (lpm),air temperature of the measurement (°C),ambient temperature measured by the external sensor (°C),aerosol sample conditioner tube jacket temperature (°C),OPC LED temperature (°C),internal box temperature (°C),relative humidity of the measurement (%),span deviation,mass concentration of particles derived from Lorenz-Mie calculation of OPC scattering (μg/m³),mass concentration of particles derived from Lorenz-Mie calculation of OPC scattering (μg/m³),mass concentration of particles derived from Lorenz-Mie calculation of OPC scattering (μg/m³)
DateTimeUTC,F1_M11,P_M11,Q1_M11,Q2_M11,T1_M11,T2_M11,T3_M11,T4_M11,T5_M11,U1_M11,ZSPAN_M11,X2_M11,X0_M11,X1_M11
2023-11-28 05:00:00,SystemResetWarning,0833.2,5.00,000.00,020.7,019.7,000.0,029.1,021.8,11.2,0000.0,0005.62,0012.04,0004.95
2023-11-28 05:01:00,SystemResetWarning,0833.2,5.00,000.00,020.6,019.7,000.0,029.1,021.8,11.2,0000.0,0005.63,0011.62,0004.95
2023-11-28 05:02:00,SystemResetWarning,0833.2,4.99,000.00,020.6,019.6,000.0,029.1,021.8,11.2,0000.0,0005.60,0011.56,0004.94
2023-11-28 05:03:00,SystemResetWarning,0833.2,5.00,000.00,020.6,019.6,000.0,029.1,021.7,11.2,0000.0,0005.60,0011.62,0004.93
2023-11-28 05:04:00,SystemResetWarning,0833.2,5.00,000.00,020.6,019.6,000.0,029.1,021.7,11.2,0000.0,0005.57,0011.55,0004.89
2023-11-28 05:05:00,SystemResetWarning,0833.1,5.00,000.00,020.6,019.6,000.0,029.1,021.7,11.3,0000.0,0005.56,0011.35,0004.86
2023-11-28 05:06:00,SystemResetWarning,0833.2,5.01,000.00,020.6,019.6,000.0,029.0,021.7,11.3,0000.0,0005.51,0011.17,0004.79
2023-11-28 05:07:00,SystemResetWarning,0833.3,5.00,000.00,020.6,019.6,000.0,029.0,021.6,11.3,0000.0,0005.40,0010.21,0004.74
2023-11-28 05:08:00,SystemResetWarning,0833.2,5.01,000.00,020.5,019.5,000.0,029.0,021.6,11.3,0000.0,0005.34,0009.89,0004.71
2023-11-28 05:09:00,SystemResetWarning,0833.3,5.00,000.00,020.5,019.5,000.0,029.0,021.6,11.3,0000.0,0005.30,0009.57,0004.68
2023-11-28 05:10:00,SystemResetWarning,0833.1,5.00,000.00,020.5,019.5,000.0,029.0,021.6,11.3,0000.0,0005.24,0009.32,0004.64
2023-11-28 05:11:00,SystemResetWarning,0833.0,5.00,000.00,020.5,019.5,000.0,029.0,021.6,11.0,0000.0,0005.21,0009.38,0004.61
2023-11-28 05:12:00,SystemResetWarning,0833.0,5.00,000.00,020.5,019.5,000.0,028.9,021.6,10.9,0000.0,0005.16,0009.31,0004.58
2023-11-28 05:13:00,SystemResetWarning,0833.1,5.01,000.00,020.5,019.5,000.0,028.9,021.6,10.8,0000.0,0005.14,0009.47,0004.54
2023-11-28 05:14:00,SystemResetWarning,0833.0,5.00,000.00,020.4,019.5,000.0,028.9,021.5,10.4,0000.0,0005.10,0009.21,0004.51
2023-11-28 05:15:00,SystemResetWarning,0833.0,5.00,000.00,020.4,019.4,000.0,028.9,021.5,10.3,0000.0,0005.05,0009.09,0004.49
2023-11-28 05:16:00,SystemResetWarning,0833.0,5.01,000.00,020.4,019.4,000.0,028.9,021.5,10.0,0000.0,0004.98,0008.87,0004.46
2023-11-28 05:17:00,SystemResetWarning,0833.0,5.01,000.00,020.4,019.4,000.0,028.9,021.5,10.1,0000.0,0004.94,0009.00,0004.43
2023-11-28 05:18:00,SystemResetWarning,0833.0,5.00,000.00,020.3,019.4,000.0,028.8,021.4,10.1,0000.0,0004.94,0009.45,0004.40
2023-11-28 05:19:00,SystemResetWarning,0833.1,5.01,000.00,020.3,019.3,000.0,028.8,021.4,10.0,0000.0,0004.92,0009.46,0004.36
2023-11-28 05:20:00,SystemResetWarning,0833.1,4.99,000.00,020.3,019.3,000.0,028.8,021.4,10.0,0000.0,0004.79,0009.26,0004.24
2023-11-28 05:21:00,SystemResetWarning,0833.0,4.99,000.00,020.3,019.3,000.0,028.8,021.4,9.8,0000.0,0004.68,0009.11,0004.14
2023-11-28 05:22:00,SystemResetWarning,0833.0,5.00,000.00,020.2,019.3,000.0,028.8,021.4,9.7,0000.0,0004.52,0009.14,0004.00
2023-11-28 05:23:00,SystemResetWarning,0833.0,5.01,000.00,020.2,019.3,000.0,028.8,021.3,9.8,0000.0,0004.35,0008.94,0003.87
2023-11-28 05:24:00,SystemResetWarning,0833.1,5.01,000.00,020.2,019.2,000.0,028.7,021.2,9.9,0000.0,0004.23,0009.24,0003.76
2023-11-28 05:25:00,SystemResetWarning,0833.1,4.99,000.00,020.2,019.2,000.0,028.7,021.3,9.7,0000.0,0004.07,0009.07,0003.61
2023-11-28 05:26:00,SystemResetWarning,0833.2,4.99,000.00,020.1,019.2,000.0,028.7,021.2,9.5,0000.0,0003.91,0008.85,0003.46
2023-11-28 05:27:00,SystemResetWarning,0833.1,5.01,000.00,020.1,019.2,000.0,028.7,021.2,9.6,0000.0,0003.74,0008.86,0003.31
2023-11-28 05:28:00,SystemResetWarning,0833.2,5.01,000.00,020.1,019.1,000.0,028.6,021.1,9.5,0000.0,0003.60,0008.64,0003.18
2023-11-28 05:29:00,SystemResetWarning,0833.3,5.01,000.00,020.1,019.1,000.0,028.6,021.1,9.2,0000.0,0003.46,0007.94,0003.04
2023-11-28 05:30:00,SystemResetWarning,0833.0,4.99,000.00,020.0,019.0,000.0,028.6,021.1,9.2,0000.0,0003.30,0007.74,0002.81
2023-11-28 05:31:00,SystemResetWarning,0833.0,4.99,000.00,020.0,019.0,000.0,028.6,021.1,9.2,0000.0,0003.21,0007.61,0002.67
2023-11-28 05:32:00,SystemResetWarning,0833.0,5.00,000.00,020.0,019.0,000.0,028.5,021.0,9.3,0000.0,0003.13,0007.54,0002.56
2023-11-28 05:33:00,SystemResetWarning,0832.9,5.00,000.00,019.9,018.9,000.0,028.5,020.9,9.2,0000.0,0003.11,0006.85,0002.52
2023-11-28 05:34:00,SystemResetWarning,0833.2,5.00,000.00,019.9,018.9,000.0,028.5,020.9,9.2,0000.0,0003.04,0006.16,0002.46
2023-11-28 05:35:00,SystemResetWarning,0833.1,5.00,000.00,019.9,018.9,000.0,028.5,020.9,9.1,0000.0,0002.91,0004.92,0002.36
2023-11-28 05:36:00,SystemResetWarning,0833.0,5.01,000.00,019.9,018.9,000.0,028.5,021.0,9.0,0000.0,0002.78,0004.88,0002.30
2023-11-28 05:37:00,SystemResetWarning,0833.0,5.00,000.00,019.9,018.9,000.0,028.4,020.9,8.9,0000.0,0002.74,0004.84,0002.27
2023-11-28 05:38:00,SystemResetWarning,0833.0,4.99,000.00,019.9,018.9,000.0,028.4,020.9,8.7,0000.0,0002.77,0004.54,0002.27
2023-11-28 05:39:00,SystemResetWarning,0833.0,5.00,000.00,019.9,018.9,000.0,028.4,020.9,8.7,0000.0,0002.76,0004.47,0002.26
2023-11-28 05:40:00,SystemResetWarning,0833.0,5.01,000.00,019.8,018.9,000.0,028.4,020.9,8.7,0000.0,0002.69,0004.34,0002.23
2023-11-28 05:41:00,SystemResetWarning,0833.0,5.01,000.00,019.8,018.9,000.0,028.4,020.9,8.9,0000.0,0002.61,0004.20,0002.20
2023-11-28 05:42:00,SystemResetWarning,0833.0,5.00,000.00,019.8,018.8,000.0,028.3,020.9,9.1,0000.0,0002.55,0004.12,0002.17
2023-11-28 05:43:00,SystemResetWarning,0833.0,4.99,000.00,019.8,018.8,000.0,028.3,020.9,8.6,0000.0,0002.49,0004.35,0002.11
2023-11-28 05:44:00,SystemResetWarning,0832.9,4.99,000.00,019.8,018.8,000.0,028.3,020.8,8.3,0000.0,0002.41,0004.28,0002.06
2023-11-28 05:45:00,SystemResetWarning,0832.9,5.00,000.00,019.8,018.8,000.0,028.3,020.8,8.5,0000.0,0002.32,0004.08,0001.99
2023-11-28 05:46:00,SystemResetWarning,0832.9,5.00,000.00,019.7,018.8,000.0,028.3,020.8,8.5,0000.0,0002.29,0004.00,0001.96
2023-11-28 05:47:00,SystemResetWarning,0833.1,5.00,000.00,019.7,018.7,000.0,028.3,020.8,8.3,0000.0,0002.24,0003.61,0001.95
2023-11-28 05:48:00,SystemResetWarning,0833.2,5.00,000.00,019.7,018.8,000.0,028.3,020.8,8.3,0000.0,0002.24,0003.72,0001.94
2023-11-28 05:49:00,SystemResetWarning,0833.3,4.99,000.00,019.7,018.8,000.0,028.2,020.8,8.7,0000.0,0002.19,0003.69,0001.88
2023-11-28 05:50:00,SystemResetWarning,0833.3,5.00,000.00,019.7,018.7,000.0,028.2,020.9,8.6,0000.0,0002.10,0003.69,0001.82
2023-11-28 05:51:00,SystemResetWarning,0832.9,5.01,000.00,019.7,018.7,000.0,028.2,020.8,8.6,0000.0,0002.08,0003.95,0001.78
2023-11-28 05:52:00,SystemResetWarning,0832.9,5.00,000.00,019.7,018.7,000.0,028.2,020.8,8.5,0000.0,0002.04,0003.88,0001.73
2023-11-28 05:53:00,SystemResetWarning,0832.9,4.99,000.00,019.7,018.7,000.0,028.2,020.8,8.6,0000.0,0001.99,0003.83,0001.68
2023-11-28 05:54:00,SystemResetWarning,0832.9,5.00,000.00,019.7,018.7,000.0,028.2,020.7,8.5,0000.0,0001.91,0004.13,0001.63
2023-11-28 05:55:00,SystemResetWarning,0832.9,5.00,000.00,019.7,018.8,000.0,028.2,020.8,8.4,0000.0,0001.86,0003.77,0001.59
2023-11-28 05:56:00,SystemResetWarning,0832.9,5.01,000.00,019.6,018.7,000.0,028.2,020.8,8.4,0000.0,0001.83,0003.74,0001.55
2023-11-28 05:57:00,SystemResetWarning,0832.9,5.01,000.00,019.6,018.7,000.0,028.1,020.7,8.3,0000.0,0001.77,0003.65,0001.52
2023-11-28 05:58:00,SystemResetWarning,0832.8,5.00,000.00,019.6,018.7,000.0,028.1,020.7,8.3,0000.0,0001.73,0005.01,0001.48
2023-11-28 05:59:00,SystemResetWarning,0832.9,5.00,000.00,019.6,018.7,000.0,028.1,020.7,8.3,0000.0,0001.65,0005.11,0001.42
